loading
|

OBJECT H, 61234

Orbit data source: Space-Track

OBJECT H, 61234 is a Chinese satellite in SSO that was launched on Tue, 24 Sep 2024 UTC via a JIELONG-3 launch vehicle from the Yellow Sea Launch Area, China (YSLA). Unknown objects in Earth's orbit typically refer to objects detected orbiting the Earth but have not yet been identified or cataloged. These objects could be anything from previously untracked satellites, spent rocket stages, debris from satellite collisions, or even natural meteoroids temporarily captured by Earth's gravity.

Loading next visibility...
Next conjunction unknown
Loading greatness...
OBJECT H details
Identifier
61234, 2024-173H
Orbit
SSO
Last TLE update4 hours ago
Origin
Flag of CNTLCJ/ZZQY (CN / PRC)
ManufacturerZZQY
MissionOperational spacecraft
Bus & MotorUnknown bus, Unknown motor
Mass~70 kg wet, ~70 kg dry
Launch date (UTC)
2024-09-24 (3 weeks ago)
Launch vehicle
JIELONG-3
Launch site
Yellow Sea Launch Area, China (YSLA)
Object typeUnknown
Shape & HBRUnknown
Radar Cross SectionMedium (>0.1 m² and <1 m²)

Expand to show TLE details & history

TLE from 4 hours ago
0 OBJECT H
1 61234U 24173H   24288.48228816  .00046777  00000-0  17600-2 0  9993
2 61234  97.4055   1.0954 0012235 208.5263 151.5307 15.26908699  3051
Epoch: 2024-10-14T11:34Z
Definitive object data (Epoch: 2024-10-14T11:34:29.697Z)
Latitude-0.00006°
Longitude163.96288°
Altitude495.545 km
Speed7.613 km/s
True Right ascension00h 04m 22s
True Declination0° 00' 00"
Sunlit
Object was in full shadow at TLE epoch
Predictive object data (real-time)
Latitude-76.38217°
Longitude-48.10732°
Altitude507.199 km
Speed7.612 km/s
Apparent Right ascension22h 39m 31s
Apparent Declination-72° 57' 29"
Sunlit
Object is in daylight
Predictive observer data (real-time)
Local Sidereal Time10:25:11
Azimuth181.923° SSW
Elevation-56.912°
Doppler factor1
Orbital elements
Apogee490.41 km
Perigee473.623 km
Semi-major axis6,860.154 km
Eccentricity0.0012235
Inclination97.4055°
RAAN1.0954°
Arg. of periapsis208.5263°
True anomaly151.59744°
Mean anomaly151.5307°
Eccentric anomaly151.56408°
Mean motion3.81982 °/min
BSTAR0.00176
Period94.25 mins
No data available

OBJECT H Visibility forecast

Observer location: 39.9160978°, -105.1181434

Span
Click to sort rows by Start time (UTC) header in descending order
Start Az.
Max El. time (UTC)
Max El. Az.
Max El.
End time (UTC)
End Az.
4 mins2024-10-14 18:26:55.713Z326.092° NNW2024-10-14 18:27:55.713Z296.673° NW27.306°2024-10-14 18:30:55.713Z227.514° WSW
5 mins2024-10-15 05:00:55.713Z163.166° S2024-10-15 05:02:55.713Z131.767° SE44.303°2024-10-15 05:05:55.713Z350.332° N